EW7405 Weather Reports


time (UTC)temp
F
wind
direction
speed
knots
gust
knots
rain 1hr
in
rain 24hr
in
rain mn
in
humidity
%
barometer
mb
20260505200040 73 267 1.7 13.0 0.00 0.00 0.00 40 1001.5
20260505194538 74 245 0.0 13.9 0.00 0.00 0.00 41 1001.2
20260505193038 75 193 0.0 10.4 0.00 0.00 0.00 38 1001.0
20260505191537 75 248 0.0 9.6 0.00 0.00 0.00 37 1001.3
20260505190036 76 256 4.3 13.9 0.00 0.00 0.00 35 1001.3
20260505184533 76 167 1.7 9.6 0.00 0.00 0.00 39 1001.5
20260505183036 77 169 2.6 11.3 0.00 0.00 0.00 41 1001.9
20260505181528 77 250 1.7 10.4 0.00 0.00 0.00 41 1001.8
20260505180042 76 231 5.2 13.9 0.00 0.00 0.00 42 1002.4
20260505174524 76 128 1.7 10.4 0.00 0.00 0.00 44 1002.3
20260505173021 75 236 4.3 16.5 0.00 0.00 0.00 44 1002.6
20260505171518 75 187 3.5 9.6 0.00 0.00 0.00 46 1003.0
20260505170015 73 197 1.7 10.4 0.00 0.00 0.00 50 1003.6
20260505164512 73 186 4.3 14.8 0.00 0.00 0.00 48 1003.8
20260505163010 73 211 4.3 13.9 0.00 0.00 0.00 51 1003.9
20260505161507 73 244 0.9 9.6 0.00 0.00 0.00 50 1004.1
20260505153057 71 193 1.7 8.7 0.00 0.04 0.00 53 1004.7
20260505151555 70 270 0.0 6.1 0.00 0.04 0.00 54 1005.1
20260505124519 56 246 0.0 0.0 0.00 0.08 0.00 74 1006.0
20260505123027 53 223 0.0 0.0 0.00 0.08 0.00 80 1006.5
20260505121511 48 34 0.0 0.0 0.00 0.08 0.00 94 1006.7
20260505120013 46 34 0.0 0.0 0.00 0.08 0.00 95 1006.7
20260505114501 45 34 0.0 0.0 0.00 0.08 0.00 95 1006.5
20260505113059 44 34 0.0 0.0 0.00 0.08 0.00 94 1006.6
20260505111557 43 34 0.0 0.0 0.00 0.08 0.00 95 1006.5
20260505101600 39 34 0.0 0.0 0.00 0.08 0.00 96 1006.7
20260505100058 39 34 0.0 0.0 0.00 0.08 0.00 96 1006.6
20260505094539 38 34 0.0 0.0 0.00 0.08 0.00 96 1006.6
20260505093038 38 34 0.0 0.0 0.00 0.08 0.00 96 1006.9
20260505091537 38 46 0.0 0.0 0.00 0.08 0.00 95 1007.0
20260505090036 38 46 0.0 0.0 0.00 0.08 0.00 95 1006.9
20260505084535 38 46 0.0 0.0 0.00 0.08 0.00 95 1007.0
20260505083035 38 46 0.0 0.0 0.00 0.08 0.00 95 1007.1
20260505081534 38 46 0.0 0.0 0.00 0.08 0.00 95 1007.1
20260505080032 38 46 0.0 0.0 0.00 0.08 0.00 95 1007.0
20260505074529 38 46 0.0 0.0 0.00 0.08 0.00 94 1007.1
20260505073036 38 46 0.0 0.0 0.00 0.08 0.00 94 1007.2
20260505071528 38 46 0.0 0.0 0.00 0.08 0.00 95 1007.2
20260505070027 38 46 0.0 0.0 0.00 0.08 0.00 94 1007.1
20260505064526 38 46 0.0 0.0 0.00 0.08 0.00 94 1007.3
20260505063025 39 46 0.0 0.0 0.00 0.08 0.00 94 1007.2
20260505061528 39 46 0.0 0.0 0.00 0.08 0.00 94 1007.3
20260505060025 39 46 0.0 0.0 0.00 0.08 0.00 94 1007.3
20260505054522 39 46 0.0 0.0 0.00 0.08 0.00 94 1007.4
20260505053033 39 46 0.0 0.0 0.00 0.08 0.00 94 1007.3
20260505051534 39 46 0.0 0.0 0.00 0.08 0.00 94 1007.2
20260505041517 40 46 0.0 0.0 0.00 0.08 0.00 93 1007.2
20260505040010 40 47 0.0 0.0 0.00 0.08 0.00 93 1007.1
20260505034509 41 51 0.0 0.0 0.00 0.08 0.08 92 1007.1
20260505033009 41 51 0.0 0.0 0.00 0.08 0.08 92 1007.0
20260505031509 42 51 0.0 0.0 0.00 0.08 0.08 92 1007.0
20260505030007 42 51 0.0 0.0 0.00 0.08 0.08 91 1007.0
20260505024508 43 51 0.0 0.0 0.00 0.08 0.08 91 1007.0
20260505023012 43 51 0.0 0.0 0.00 0.08 0.08 90 1007.1
20260505021506 44 51 0.0 0.0 0.00 0.08 0.08 90 1007.2
20260505020006 44 51 0.0 0.0 0.00 0.08 0.08 90 1007.2
20260505014505 45 59 0.0 1.7 0.00 0.08 0.08 90 1007.2
20260505013005 46 59 0.0 0.0 0.00 0.08 0.08 89 1007.3
20260505011506 46 59 0.0 0.0 0.00 0.08 0.08 88 1007.1
20260505010010 47 59 0.0 0.0 0.00 0.08 0.08 87 1007.0
20260505004504 48 87 0.0 0.0 0.00 0.08 0.08 86 1006.6
20260505003008 49 91 0.0 0.0 0.00 0.08 0.08 84 1006.4
20260505001502 51 118 0.0 0.9 0.00 0.08 0.08 82 1006.1
20260505000001 52 119 0.0 0.0 0.00 0.08 0.08 81 1006.0
20260504234501 53 119 0.0 0.0 0.00 0.08 0.08 78 1005.8
20260504233100 54 119 0.0 0.0 0.00 0.08 0.08 75 1005.6
20260504231601 56 122 0.0 0.0 0.00 0.08 0.08 76 1005.4
20260504230058 57 122 0.0 0.0 0.00 0.08 0.08 74 1005.3
20260504224558 58 122 0.0 0.0 0.00 0.08 0.08 72 1005.1
20260504223102 59 122 0.0 0.0 0.00 0.08 0.08 65 1005.1
20260504221608 60 122 0.0 0.0 0.00 0.08 0.08 60 1005.1
20260504220055 60 122 0.0 0.9 0.00 0.08 0.08 57 1005.1
20260504214601 61 210 0.0 0.0 0.00 0.08 0.08 59 1005.3
20260504213104 62 209 0.0 0.9 0.00 0.08 0.08 56 1005.3
20260504211553 62 244 0.0 7.0 0.00 0.08 0.08 55 1005.4
20260504210048 62 215 0.0 3.5 0.00 0.08 0.08 59 1005.5
20260504204548 61 206 0.0 0.0 0.00 0.08 0.08 54 1005.6
20260504203049 60 225 0.0 0.9 0.00 0.08 0.08 61 1005.8
20260504201541 59 286 0.0 2.6 0.00 0.08 0.08 65 1005.9